Chattanooga, TN

11:24 PM EST on January 19, 2018 (GMT -0500)
Lovell

Weather History for KCHA - January, 2014

Change the Weather History Date:

Saturday, January 25, 2014

  Actual Average Record
Temperature  
Mean Temperature 30 °F 41 °F  
Max Temperature 43 °F 51 °F 77 °F (1950)
Min Temperature 17 °F 31 °F 2 °F (1905)
Degree Days  
Heating Degree Days 35 24  
Month to date heating degree days 746 621  
Since 1 July heating degree days 1994 1905  
Moisture  
Dew Point 9 °F    
Average Humidity 43    
Maximum Humidity 56    
Minimum Humidity 29    
Precipitation  
Precipitation 0.00 in 0.16 in 2.10 in (2004)
Month to date precipitation 2.29 3.97  
Year to date precipitation 2.29 3.97  
Snow  
Snow 0.00 in 0.00 in - ()
Month to date snowfall T 1.4  
Since 1 July snowfall T 1.7  
Snow Depth 0.00 in    
Sea Level Pressure  
Sea Level Pressure 30.00 in    
Wind  
Wind Speed 7 mph (SSW)    
Max Wind Speed 14 mph    
Max Gust Speed 18 mph    
Visibility 10 miles    
Events      
T = Trace of Precipitation, MM = Missing Value Source: NWS Daily Summary

Daily Weather History Graph

Daily Weather History Graph

Search for Another Location

Airport or City:

Trip Planner

Search our weather history database for the weather conditions in past years. The results will help you decide how hot, cold, wet, or windy it might be!

Date:

Astronomy

Jan. 25, 2014 Rise Set
Actual Time 7:44 AM EST 6:02 PM EST
Civil Twilight 7:17 AM EST 6:29 PM EST
Nautical Twilight 6:46 AM EST 7:00 PM EST
Astronomical Twilight 6:16 AM EST 7:30 PM EST
Moon 2:16 AM EST (1/25) 1:02 PM EST (1/25)
Length of Visible Light 11h 12m
Length of Day
10h 18m
Waning Crescent, 34% of the Moon is Illuminated
Jan 25
Waning Crescent
Jan 30
New
Feb 6
First Quarter
Feb 14
Full
Feb 22
Last Quarter

Hourly Weather History & Observations

Time (EST) Temp. Windchill Dew Point Humidity Pressure Visibility Wind Dir Wind Speed Gust Speed Precip Events Conditions
12:53 AM 19.0 °F - 1.9 °F 47% 30.22 in 10.0 mi North - - N/A   Clear
1:53 AM 19.0 °F - -0.0 °F 43% 30.19 in 10.0 mi North - - N/A   Clear
2:53 AM 19.0 °F - 1.9 °F 47% 30.16 in 10.0 mi North - - N/A   Clear
3:53 AM 23.0 °F - 1.9 °F 40% 30.12 in 10.0 mi North - - N/A   Clear
4:53 AM 21.9 °F - 3.0 °F 44% 30.09 in 10.0 mi North - - N/A   Clear
5:53 AM 24.1 °F 16.0 °F 3.9 °F 42% 30.08 in 10.0 mi WSW 6.9 mph - N/A   Mostly Cloudy
6:53 AM 26.1 °F 17.6 °F 1.9 °F 35% 30.02 in 10.0 mi South 8.1 mph - N/A   Mostly Cloudy
7:53 AM 25.0 °F 17.1 °F 1.9 °F 37% 30.00 in 10.0 mi South 6.9 mph - N/A   Mostly Cloudy
8:53 AM 26.1 °F 17.6 °F 3.9 °F 39% 29.96 in 10.0 mi South 8.1 mph - N/A   Mostly Cloudy
9:53 AM 28.0 °F 20.0 °F 5.0 °F 38% 29.93 in 10.0 mi South 8.1 mph - N/A   Overcast
10:53 AM 33.1 °F 26.1 °F 6.1 °F 32% 29.95 in 10.0 mi South 8.1 mph - N/A   Mostly Cloudy
11:53 AM 33.1 °F 23.4 °F 7.0 °F 34% 29.94 in 10.0 mi WSW 13.8 mph - N/A   Mostly Cloudy
12:53 PM 34.0 °F 26.0 °F 8.1 °F 34% 29.91 in 10.0 mi SSW 10.4 mph - N/A   Overcast
1:53 PM 37.0 °F 32.4 °F 9.0 °F 31% 29.89 in 10.0 mi WSW 5.8 mph - N/A   Mostly Cloudy
2:53 PM 39.9 °F 34.5 °F 12.0 °F 32% 29.88 in 10.0 mi WSW 8.1 mph - N/A   Mostly Cloudy
3:53 PM 42.1 °F 35.2 °F 14.0 °F 32% 29.88 in 10.0 mi WSW 12.7 mph - N/A   Mostly Cloudy
4:53 PM 43.0 °F 36.8 °F 16.0 °F 34% 29.89 in 10.0 mi WSW 11.5 mph - N/A   Mostly Cloudy
5:53 PM 41.0 °F 35.2 °F 17.1 °F 38% 29.92 in 10.0 mi SW 9.2 mph - N/A   Mostly Cloudy
6:53 PM 37.9 °F 32.7 °F 18.0 °F 45% 29.93 in 10.0 mi South 6.9 mph - N/A   Mostly Cloudy
7:53 PM 36.0 °F 30.3 °F 18.0 °F 48% 29.95 in 10.0 mi SSW 6.9 mph - N/A   Scattered Clouds
8:53 PM 36.0 °F 31.1 °F 18.0 °F 48% 29.96 in 10.0 mi South 5.8 mph - N/A   Scattered Clouds
9:53 PM 37.0 °F 32.4 °F 18.0 °F 46% 29.96 in 10.0 mi South 5.8 mph - N/A   Scattered Clouds
10:53 PM 34.0 °F 28.8 °F 19.0 °F 54% 29.97 in 10.0 mi SSW 5.8 mph - N/A   Scattered Clouds
11:53 PM 34.0 °F - 19.0 °F 54% 29.99 in 10.0 mi Calm Calm - N/A   Partly Cloudy